Regional Weather Roundup
Issued by NWS Green Bay, WI

Home | Current Version | Previous Version | Graphics & Text | Print | Product List | Glossary Off
Versions: 1 2 3 4 5 6 7 8 9 10 11 12 13 14 15 16 17 18 19 20 21 22 23 24 25 26 27 28 29 30 31 32 33 34 35 36 37 38 39 40 41 42 43 44 45 46 47 48 49 50

000
ASUS43 KGRB 261900
RWRGRB

NORTH-CENTRAL AND NORTHEAST WISCONSIN REGIONAL WEATHER ROUNDUP
NATIONAL WEATHER SERVICE GREEN BAY WI
200 PM CDT FRI MAY 26 2017

WIZ005-009-010>012-018-019-262000-
NORTH CENTRAL WISCONSIN

CITY           SKY/WX    TMP DP  RH WIND       PRES   REMARKS
IRONWOOD       CLOUDY    68  53  58 SE8       29.77F
MANITOWISH WTR NOT AVBL
ARBOR VITAE    NOT AVBL
EAGLE RIVER    NOT AVBL
LAND O LAKES   NOT AVBL
RHINELANDER    CLOUDY    69  53  56 SW8       29.83R
PHILLIPS       NOT AVBL
ANTIGO         NOT AVBL
TOMAHAWK       NOT AVBL
MERRILL        NOT AVBL
$$

WIZ013-073-262000-
NORTHEAST WISCONSIN

CITY           SKY/WX    TMP DP  RH WIND       PRES   REMARKS
IRON MOUNTAIN  CLOUDY    70  51  51 S8        29.81S
MARINETTE      MOSUNNY   66  54  65 SE8       29.85S
$$

WIZ017-030-035>037-045-262000-
CENTRAL WISCONSIN

CITY           SKY/WX    TMP DP  RH WIND       PRES   REMARKS
MEDFORD        NOT AVBL
WAUSAU         CLOUDY    69  56  62 S9        29.81S
MOSINEE        PTSUNNY   70  57  64 S6        29.83F
MARSHFIELD     CLOUDY    68  55  63 S9        29.80S
WISC RAPIDS    CLOUDY    72  54  53 S8        29.82R
STEVENS POINT  NOT AVBL
WAUPACA        NOT AVBL
SHAWANO        NOT AVBL
CLINTONVILLE   NOT AVBL
WAUTOMA        CLOUDY    70  55  59 S7        29.83R
$$

WIZ038-039-048-051-262000-
FOX VALLEY

CITY           SKY/WX    TMP DP  RH WIND       PRES   REMARKS
NWS GREEN BAY  CLOUDY    69  59  70 S7        29.83S
APPLETON       CLOUDY    66  52  59 SE8       29.82S
OSHKOSH        CLOUDY    68  56  65 E8        29.82S
FOND DU LAC    LGT RAIN  72  55  55 SE12      29.83R
$$

WIZ022-050-052-262000-
EAST CENTRAL WISCONSIN

CITY           SKY/WX    TMP DP  RH WIND       PRES   REMARKS
EPHRAIM        NOT AVBL
WASHINGTON ISL NOT AVBL
STURGEON BAY   SUNNY     64  52  64 SE9       29.86R
MANITOWOC      NOT AVBL
SHEBOYGAN      CLOUDY    62  54  74 SE8       29.85S
$$

LMZ563-521-522-541>543-262000-
LAKESHORE

STATION/POSITION TIME  TEMP    WIND        PRES    VSBY  WAVE
                       AIR SEA DIR/SP/G                  HT/PER
                 (UTC) (F)     (DEG/KT/KT) (MB)    (MI)  (FT/S)
SHEBOYGAN LKSHOR 1800   47     140/  2/  2 1010.9F
KEWAUNEE LKSHORE 1830   46     160/  4/  5 1011.0S
NORTHPORT PIER   1840   54     140/ 12/ 14 1010.8S
CHAMBERS ISLAND  1840   59      20/  2/  5 1010.2S
MENOMINEE LKSHOR 1830           60/  4/  4 1009.7F
$$




USA.gov is the U.S. government's official web portal to all federal, state and local government web resources and services.